Latest Weather Observations for Munglinup West

IDW60801

Issued at 9:02 am WST Monday 22 December 2014 (issued every 30 minutes, with the page automatically refreshed every 10 minutes)

About weather observations | Map of weather stations | Latest weather observations for WA | Other Formats
Station Details ID: 012044 Name: MUNGLINUP WEST Lat: -33.55 Lon: 120.70 Height: 220.0 m
Data from the previous 72 hours. | See also: Recent months at Munglinup West
Date/Time
WST
Temp
°C
App
Temp
°C
Dew
Point
Rel
Hum
%
Delta-T
°C
Wind Press
QNH
hPa
Press
MSL
hPa
Rain
since 9 am
mm
Dir
 
Spd
km/h
Gust
km/h
Spd
kts
Gust
kts
22/09:00am 18.4 18.6 14.1 76 2.5 S 6 11 3 6 1019.1 1018.4 1.6
22/08:30am 17.5 17.8 14.4 82 1.8 SE 6 9 3 5 1019.2 1018.5 1.6
22/08:00am 16.4 16.9 15.6 95 0.5 ESE 7 11 4 6 1019.3 1018.6 1.6
22/07:30am 15.8 16.0 15.8 100 0.0 SE 9 13 5 7 1019.3 1018.6 1.6
22/07:00am 15.3 15.9 15.3 100 0.0 ESE 6 9 3 5 1019.2 1018.5 1.6
22/06:30am 14.7 15.1 14.7 100 0.0 E 6 9 3 5 1018.9 1018.2 1.6
22/06:00am 14.2 14.2 14.2 100 0.0 ESE 7 11 4 6 1018.5 1017.8 1.6
22/05:30am 14.1 14.1 14.1 100 0.0 ESE 7 11 4 6 1018.3 1017.6 1.6
22/05:00am 13.8 13.7 13.8 100 0.0 ESE 7 9 4 5 1017.9 1017.2 1.6
22/04:30am 13.5 13.5 13.5 100 0.0 SE 6 7 3 4 1017.6 1016.9 1.6
22/04:00am 13.6 14.0 13.6 100 0.0 ESE 4 6 2 3 1017.6 1016.9 1.6
22/03:30am 13.5 12.1 13.5 100 0.0 ESE 13 17 7 9 1017.6 1016.9 1.4
22/03:00am 13.6 12.3 13.6 100 0.0 SE 13 20 7 11 1017.7 1017.0 1.4
22/02:30am 13.7 12.0 13.7 100 0.0 SE 15 19 8 10 1017.9 1017.2 1.4
22/02:00am 13.8 12.2 13.8 100 0.0 SSE 15 20 8 11 1018.0 1017.3 1.4
22/01:30am 14.2 12.7 14.2 100 0.0 SE 15 20 8 11 1018.0 1017.3 1.0
22/01:00am 14.4 13.3 14.4 100 0.0 SE 13 17 7 9 1018.2 1017.5 1.0
22/12:30am 14.4 14.1 14.4 100 0.0 SE 9 15 5 8 1018.6 1017.9 1.0
22/12:00am 14.3 13.6 14.3 100 0.0 SE 11 15 6 8 1018.6 1017.9 1.0
 
Date/Time
WST
Temp
°C
App
Temp
°C
Dew
Point
Rel
Hum
%
Delta-T
°C
Wind Press
QNH
hPa
Press
MSL
hPa
Rain
since 9 am
mm
Dir
 
Spd
km/h
Gust
km/h
Spd
kts
Gust
kts
21/11:30pm 14.2 13.0 13.9 98 0.2 S 13 22 7 12 1019.1 1018.4 0.8
21/11:00pm 15.1 15.4 14.6 97 0.3 SSE 6 9 3 5 1019.2 1018.5 0.2
21/10:30pm 15.0 14.7 14.5 97 0.3 ESE 9 15 5 8 1019.2 1018.5 0.2
21/10:00pm 15.2 13.5 14.7 97 0.3 SE 17 20 9 11 1019.1 1018.4 0.2
21/09:30pm 15.6 14.3 14.8 95 0.5 SE 15 22 8 12 1018.9 1018.2 0.2
21/09:00pm 15.6 14.8 15.0 96 0.3 SSE 13 22 7 12 1018.8 1018.1 0.2
21/08:30pm 15.6 15.9 15.1 97 0.3 SSE 7 11 4 6 1018.8 1018.1 0.2
21/08:00pm 15.4 14.9 14.9 97 0.3 SSE 11 15 6 8 1018.7 1018.0 0.2
21/07:30pm 15.4 14.0 14.4 94 0.6 SSE 15 20 8 11 1018.3 1017.6 0.2
21/07:00pm 16.2 14.9 14.9 92 0.8 SSE 15 20 8 11 1018.1 1017.4 0.2
21/06:30pm 16.4 14.4 14.9 91 0.9 SSE 19 24 10 13 1017.9 1017.2 0.2
21/06:00pm 16.7 15.2 15.4 92 0.8 SSE 17 24 9 13 1017.6 1016.9 0.2
21/05:30pm 16.5 14.9 15.9 96 0.4 SSE 19 26 10 14 1017.4 1016.7 0.2
21/05:00pm 16.5 15.0 16.3 99 0.1 SSE 19 26 10 14 1017.4 1016.7 0.2
21/04:30pm 16.6 15.5 16.3 98 0.2 SSE 17 26 9 14 1017.2 1016.5 0.2
21/04:00pm 16.8 14.7 16.2 96 0.4 SSE 22 28 12 15 1017.3 1016.6 0.0
21/03:30pm 17.1 14.9 16.0 93 0.7 SSE 22 30 12 16 1017.1 1016.4 0.0
21/03:00pm 19.3 17.2 16.2 82 1.9 SSE 22 30 12 16 1017.0 1016.3 0.0
21/02:30pm 20.0 18.7 17.2 84 1.7 SSE 20 30 11 16 1017.0 1016.3 0.0
21/02:00pm 18.6 17.4 17.1 91 0.9 SSE 19 26 10 14 1017.1 1016.4 0.0
21/01:30pm 18.6 17.6 16.6 88 1.2 SSE 17 28 9 15 1017.2 1016.5 0.0
21/01:00pm 19.1 18.7 18.1 94 0.6 SSE 17 22 9 12 1017.1 1016.4 0.0
21/12:30pm 18.5 17.3 18.5 100 0.0 SSE 22 32 12 17 1017.1 1016.4 0.0
21/12:00pm 17.8 16.3 17.8 100 0.0 SSE 22 28 12 15 1017.3 1016.6 0.0
21/11:30am 17.4 16.7 17.4 100 0.0 SSE 17 24 9 13 1017.4 1016.7 0.0
21/11:00am 17.6 - - - - SSE 17 22 9 12 1017.6 1016.9 0.0
21/10:30am 17.5 - - - - SE 17 22 9 12 1017.7 1017.0 0.0
21/10:00am 17.0 - - - - SE 19 26 10 14 1017.7 1017.0 0.0
21/09:30am 16.6 - - - - SE 19 24 10 13 1017.7 1017.0 0.0
21/09:00am 16.6 - - - - SE 19 26 10 14 1017.7 1017.0 29.0
21/08:30am 16.4 - - - - SE 17 22 9 12 1017.6 1016.9 28.0
21/08:00am 16.1 - - - - SE 19 26 10 14 1017.3 1016.6 27.4
21/07:30am 15.8 - - - - SE 19 26 10 14 1017.1 1016.4 26.0
21/07:00am 15.9 - - - - SE 22 30 12 16 1016.8 1016.1 24.8
21/06:30am 15.9 - - - - SE 22 30 12 16 1016.5 1015.8 21.6
21/06:00am 15.7 - - - - SE 24 33 13 18 1016.0 1015.3 21.0
21/05:30am 15.9 - - - - SE 24 32 13 17 1015.4 1014.6 20.4
21/05:00am 16.1 - - - - SE 20 30 11 16 1014.8 1014.1 20.2
21/04:30am 16.4 - - - - SE 19 24 10 13 1014.4 1013.7 19.6
21/04:00am 16.3 - - - - SE 17 22 9 12 1014.0 1013.3 19.2
21/03:30am 16.3 - - - - SSE 15 22 8 12 1013.8 1013.1 17.8
21/03:00am 16.1 - - - - SSE 13 17 7 9 1013.4 1012.7 17.8
21/02:30am 15.9 - - - - SSE 13 19 7 10 1013.3 1012.6 16.6
21/02:00am 15.8 - - - - SSE 11 13 6 7 1013.4 1012.7 15.4
21/01:30am 16.1 - - - - SSE 11 17 6 9 1013.4 1012.7 15.4
21/01:00am 16.5 - - - - SE 13 17 7 9 1013.3 1012.6 15.2
21/12:30am 16.5 - - - - ESE 13 17 7 9 1013.2 1012.5 14.8
21/12:00am 16.9 - - - - SSE 13 20 7 11 1013.1 1012.4 13.8
 
Date/Time
WST
Temp
°C
App
Temp
°C
Dew
Point
Rel
Hum
%
Delta-T
°C
Wind Press
QNH
hPa
Press
MSL
hPa
Rain
since 9 am
mm
Dir
 
Spd
km/h
Gust
km/h
Spd
kts
Gust
kts
20/11:30pm 16.9 - - - - S 15 24 8 13 1013.0 1012.3 12.8
20/11:00pm 17.0 - - - - S 15 24 8 13 1013.0 1012.3 12.4
20/10:30pm 17.2 - - - - SSE 15 22 8 12 1012.9 1012.2 12.0
20/10:00pm 17.2 16.4 17.2 100 0.0 SSE 17 24 9 13 1012.6 1011.9 11.8
20/09:30pm 17.3 16.6 17.3 100 0.0 SSE 17 20 9 11 1012.6 1011.9 11.8
20/09:00pm 17.3 16.6 17.3 100 0.0 SE 17 24 9 13 1012.3 1011.6 11.8
20/08:30pm 17.5 17.3 17.5 100 0.0 SSE 15 20 8 11 1012.2 1011.5 11.8
20/08:00pm 17.6 17.8 17.6 100 0.0 S 13 17 7 9 1011.8 1011.0 11.6
20/07:30pm 17.6 17.8 17.6 100 0.0 S 13 19 7 10 1011.3 1010.5 11.4
20/07:00pm 17.7 17.9 17.7 100 0.0 SSW 13 17 7 9 1011.3 1010.5 11.2
20/06:30pm 17.8 18.4 17.8 100 0.0 SSE 11 19 6 10 1010.9 1010.1 11.2
20/06:00pm 17.5 16.9 17.5 100 0.0 SSE 17 22 9 12 1010.4 1009.6 11.2
20/05:30pm 17.7 16.8 17.7 100 0.0 SSE 19 26 10 14 1009.6 1008.9 11.2
20/05:00pm 17.6 15.7 17.6 100 0.0 SE 24 33 13 18 1008.8 1008.1 10.8
20/04:30pm 17.7 16.2 17.7 100 0.0 SSE 22 33 12 18 1009.0 1008.3 7.6
20/04:00pm 17.9 16.9 17.9 100 0.0 ESE 20 28 11 15 1008.3 1007.6 7.6
20/03:30pm 17.9 15.3 17.9 100 0.0 SE 28 41 15 22 1008.1 1007.4 4.4
20/03:00pm 17.8 15.6 17.8 100 0.0 SSE 26 37 14 20 1008.0 1007.3 4.2
20/02:30pm 17.5 15.2 17.5 100 0.0 SE 26 37 14 20 1009.0 1008.3 4.0
20/02:26pm 17.4 14.3 17.4 100 0.0 SSE 30 43 16 23 1008.3 1007.6 3.2
20/02:00pm 17.6 14.8 17.4 99 0.1 SSE 28 46 15 25 1006.2 1005.4 2.4
20/01:35pm 17.4 14.6 17.2 99 0.1 SSE 28 52 15 28 1006.5 1005.7 2.0
20/01:30pm 17.4 15.7 17.1 98 0.2 SSE 22 33 12 18 1008.2 1007.5 1.8
20/01:15pm 17.4 14.8 16.9 97 0.3 S 26 37 14 20 1007.6 1006.8 1.6
20/01:00pm 17.8 13.9 17.0 95 0.5 SW 33 46 18 25 1009.6 1008.9 0.6
20/12:45pm 18.6 15.6 16.9 90 1.0 S 28 44 15 24 1007.8 1007.0 0.0
20/12:30pm 19.9 16.8 16.5 81 2.1 SSE 28 39 15 21 1005.6 1004.8 0.0
20/12:00pm 22.8 19.4 16.8 69 3.7 SSE 30 37 16 20 1005.7 1004.9 0.0
20/11:30am 25.0 22.3 16.7 60 5.2 SE 26 37 14 20 1006.6 1005.8 0.0
20/11:11am 27.4 25.0 15.4 48 7.4 SSE 22 35 12 19 1006.4 1005.6 0.0
20/11:00am 32.4 32.7 12.1 29 12.1 SSE 2 6 1 3 1006.5 1005.7 0.0
20/10:30am 32.5 29.2 11.6 28 12.4 N 20 33 11 18 1007.0 1006.2 0.0
20/10:00am 33.6 30.8 12.6 28 12.7 N 19 32 10 17 1007.3 1006.5 0.0
20/09:30am 33.1 29.8 12.7 29 12.3 N 22 39 12 21 1007.8 1007.0 0.0
20/09:00am 32.7 28.6 10.1 25 13.1 N 22 33 12 18 1008.3 1007.6 0.0
20/08:30am 31.3 26.9 8.9 25 12.6 N 22 33 12 18 1009.0 1008.3 0.0
20/08:00am 29.6 25.4 9.7 29 11.3 N 22 32 12 17 1009.7 1009.0 0.0
20/07:30am 27.6 23.4 9.9 33 10.0 NNE 22 32 12 17 1009.9 1009.2 0.0
20/07:00am 25.1 21.5 10.6 40 8.2 NNE 20 30 11 16 1010.3 1009.5 0.0
20/06:30am 22.2 18.5 10.0 46 6.7 NE 20 28 11 15 1010.3 1009.5 0.0
20/06:00am 19.1 15.6 10.1 56 4.9 NE 19 24 10 13 1010.5 1009.7 0.0
20/05:30am 18.7 15.5 10.0 57 4.7 NE 17 22 9 12 1010.4 1009.6 0.0
20/05:00am 18.3 15.9 10.2 59 4.4 NNE 13 19 7 10 1010.6 1009.8 0.0
20/04:30am 17.1 13.4 10.2 64 3.7 ENE 20 28 11 15 1010.0 1009.3 0.0
20/04:00am 17.3 13.2 10.2 63 3.8 ENE 22 30 12 16 1009.8 1009.1 0.0
20/03:30am 17.2 13.2 10.3 64 3.7 ENE 22 30 12 16 1009.9 1009.2 0.0
20/03:00am 17.2 12.9 10.6 65 3.6 ENE 24 32 13 17 1010.0 1009.3 0.0
20/02:30am 16.9 12.3 11.0 68 3.2 ENE 26 32 14 17 1010.0 1009.3 0.0
20/02:00am 17.4 14.0 11.4 68 3.3 ENE 20 28 11 15 1010.8 1010.0 0.0
20/01:30am 17.8 14.6 12.0 69 3.2 ENE 20 28 11 15 1011.2 1010.4 0.0
20/01:00am 17.3 15.2 12.4 73 2.7 ENE 15 22 8 12 1011.7 1010.9 0.0
20/12:30am 17.8 15.0 12.7 72 2.9 E 19 26 10 14 1011.5 1010.7 0.0
20/12:00am 17.9 14.5 12.6 71 3.0 E 22 30 12 16 1011.8 1011.0 0.0
 
Date/Time
WST
Temp
°C
App
Temp
°C
Dew
Point
Rel
Hum
%
Delta-T
°C
Wind Press
QNH
hPa
Press
MSL
hPa
Rain
since 9 am
mm
Dir
 
Spd
km/h
Gust
km/h
Spd
kts
Gust
kts
19/11:30pm 18.4 15.4 12.6 69 3.3 E 20 30 11 16 1012.4 1011.7 0.0
19/11:00pm 18.8 15.5 12.8 68 3.4 E 22 32 12 17 1012.6 1011.9 0.0
19/10:30pm 19.3 15.6 12.6 65 3.8 E 24 35 13 19 1012.7 1012.0 0.0
19/10:00pm 19.6 15.1 12.6 64 4.0 E 28 39 15 21 1013.2 1012.5 0.0
19/09:30pm 19.2 15.6 12.9 67 3.6 E 24 33 13 18 1013.2 1012.5 0.0
19/09:00pm 19.1 15.6 13.5 70 3.2 E 24 33 13 18 1013.3 1012.6 0.0
19/08:30pm 18.9 16.3 14.8 77 2.4 E 22 32 12 17 1013.2 1012.5 0.0
19/08:00pm 19.5 16.9 15.0 75 2.7 ESE 22 30 12 16 1012.9 1012.2 0.0
19/07:30pm 20.3 17.3 14.7 70 3.3 ESE 24 32 13 17 1012.7 1012.0 0.0
19/07:00pm 21.5 17.2 13.2 59 4.8 ESE 28 37 15 20 1012.5 1011.8 0.0
19/06:30pm 23.2 19.2 13.1 53 5.9 ESE 26 37 14 20 1012.4 1011.7 0.0
19/06:00pm 24.6 18.9 11.2 43 7.6 ESE 32 48 17 26 1012.5 1011.8 0.0
19/05:30pm 26.0 20.4 11.4 40 8.4 ESE 32 44 17 24 1012.4 1011.7 0.0
19/05:00pm 27.6 22.0 12.0 38 9.1 ESE 33 43 18 23 1012.7 1012.0 0.0
19/04:30pm 29.1 23.6 12.5 36 9.8 SE 33 44 18 24 1012.7 1012.0 0.0
19/04:00pm 30.3 25.0 11.3 31 11.1 ESE 30 43 16 23 1013.1 1012.4 0.0
19/03:30pm 30.6 24.7 10.5 29 11.6 SE 32 39 17 21 1013.6 1012.9 0.0
19/03:00pm 31.6 26.0 11.4 29 11.9 SE 32 41 17 22 1013.9 1013.2 0.0
19/02:30pm 31.9 26.5 12.2 30 11.7 SE 32 43 17 23 1014.3 1013.6 0.0
19/02:17pm 32.8 27.3 11.9 28 12.4 SE 32 43 17 23 1014.2 1013.5 0.0
19/02:00pm 34.5 32.0 5.0 16 15.9 W 7 24 4 13 1014.4 1013.7 0.0
19/01:30pm 34.3 30.5 4.0 15 16.0 ENE 13 20 7 11 1014.8 1014.1 0.0
19/01:00pm 32.9 30.4 4.6 17 15.0 ENE 7 13 4 7 1015.4 1014.6 0.0
19/12:30pm 33.4 29.8 5.0 17 15.2 ENE 13 26 7 14 1015.9 1015.1 0.0
19/12:00pm 32.1 29.8 5.6 19 14.2 ENE 7 17 4 9 1016.5 1015.8 0.0
19/11:30am 31.8 28.8 6.1 20 13.9 NE 11 22 6 12 1017.1 1016.4 0.0
19/11:00am 31.0 27.2 7.5 23 12.9 NE 17 24 9 13 1017.5 1016.8 0.0
19/10:30am 29.7 26.4 8.2 26 11.9 ENE 15 26 8 14 1017.9 1017.2 0.0
19/10:00am 28.7 25.5 8.4 28 11.2 NE 15 24 8 13 1018.3 1017.6 0.0
19/09:30am 27.4 23.9 8.8 31 10.3 ENE 17 22 9 12 1018.7 1018.0 0.0

Other Formats:

Comma delimited format used in spreadsheet applications
http://www.bom.gov.au/fwo/IDW60801/IDW60801.95644.axf

JavaScript Object Notation format (JSON) in row-major order
http://www.bom.gov.au/fwo/IDW60801/IDW60801.95644.json